Location: Aressy
(43.2833°N, 0.3167°W)
Time: 20:44:13
(UTC+00:00)

In-Cosmos 22 Rocket - Pass Details

Date: 28 January 2021
Orbit: 789 x 889 km, 81.2° (Epoch: 03 March)

Event Time Altitude Azimuth Distance (km) Brightness Sun altitude
Rises 19:14:26 0° 188° (S) 3,476 7.5 -23.0°
Reaches altitude 10° 19:16:53 10° 189° (S) 2,535 6.8 -23.5°
Maximum altitude 19:22:41 89° 273° (W) 879 4.2 -24.5°
Drops below altitude 10° 19:28:24 10° 10° (N) 2,501 6.5 -25.6°
Enters shadow 19:29:48 - 10° (N) 3,039 7.0 -25.8°
